Location: Buckland
(65.9785°N, 161.1281°W)
Time: 22:09:09
(UTC+00:00)

PRISM - Pass Details

Date: 20 January 2021
Orbit: 565 x 584 km, 98.2° (Epoch: 06 March)

Event Time Altitude Azimuth Distance (km) Brightness Sun altitude
Rises 17:49:34 0° 33° (NNE) 2,783 ? -12.9°
Reaches altitude 10° 17:53:08 10° 0° (N) 1,886 ? -12.5°
Maximum altitude 17:54:26 11° 341° (NNW) 1,799 ? -12.4°
Enters shadow 17:55:00 11° 333° (NNW) 1,817 ? -12.3°
